DW4885 Weather Reports


Display with metric or nautical units.
time (UTC)temp
F
wind
direction
speed
MPH
gust
MPH
rain 1hr
in
rain 24hr
in
rain mn
in
humidity
%
barometer
mb
20221204024508 35 289 5.0 14.0 0.00 0.19 0.19 79 1011.5
20221204023507 35 313 6.0 13.0 0.00 0.19 0.19 78 1011.5
20221204022509 36 305 5.0 14.0 0.00 0.19 0.19 78 1011.3
20221204022008 36 266 3.0 8.0 0.00 0.19 0.19 79 1011.5
20221204021008 36 298 6.0 22.0 0.00 0.19 0.19 79 1011.5
20221204015511 36 299 4.0 12.0 0.00 0.19 0.19 78 1011.2
20221204013509 37 269 6.0 15.0 0.00 0.19 0.19 78 1011.0
20221204012508 37 318 4.0 16.0 0.00 0.19 0.19 78 1010.6
20221204012008 37 307 7.0 18.0 0.00 0.19 0.19 78 1010.6
20221204011508 37 294 5.0 13.0 0.00 0.19 0.19 79 1010.4
20221204011008 37 283 5.0 12.0 0.00 0.19 0.19 80 1010.2
20221204010008 37 284 7.0 16.0 0.00 0.19 0.19 79 1010.1
20221204004508 37 300 5.0 10.0 0.00 0.19 0.19 80 1010.1
20221204004008 37 288 6.0 14.0 0.00 0.19 0.19 80 1010.1
20221204003508 37 315 6.0 16.0 0.00 0.19 0.19 81 1009.9
20221204003009 37 323 6.0 12.0 0.00 0.19 0.19 82 1009.6
20221204002008 38 282 4.0 18.0 0.00 0.19 0.19 81 1009.6
20221204000508 38 281 7.0 18.0 0.00 0.19 0.19 80 1008.8
20221204000009 38 273 7.0 15.0 0.00 0.19 0.19 80 1008.7
20221203235008 39 282 7.0 17.0 0.00 0.19 0.19 81 1008.3
20221203234508 39 297 6.0 15.0 0.00 0.19 0.19 80 1008.2
20221203234008 40 284 10.0 20.0 0.00 0.19 0.19 80 1008.3
20221203233009 40 295 7.0 17.0 0.00 0.19 0.19 81 1008.3
20221203231509 41 272 5.0 13.0 0.02 0.19 0.19 84 1007.8
20221203230509 42 263 7.0 22.0 0.04 0.19 0.19 86 1007.5
20221203230009 42 259 6.0 17.0 0.04 0.19 0.19 87 1007.1
20221203225009 43 265 7.0 17.0 0.05 0.19 0.19 89 1006.7
20221203224509 43 266 10.0 20.0 0.05 0.19 0.19 90 1006.5
20221203224009 43 271 7.0 23.0 0.05 0.19 0.19 92 1006.5
20221203223508 43 263 9.0 18.0 0.05 0.19 0.19 93 1006.1
20221203223009 44 260 10.0 20.0 0.06 0.19 0.19 95 1006.0
20221203220009 45 265 5.0 7.0 0.03 0.15 0.15 97 1004.9
20221203215508 45 255 3.0 8.0 0.03 0.15 0.15 97 1004.9
20221203215008 44 261 4.0 8.0 0.02 0.14 0.14 97 1004.9
20221203214508 44 256 3.0 6.0 0.02 0.14 0.14 97 1004.9
20221203214009 44 248 3.0 9.0 0.02 0.14 0.14 97 1004.9
20221203213508 44 258 2.0 9.0 0.03 0.14 0.14 96 1004.9
20221203213009 44 246 5.0 7.0 0.02 0.13 0.13 97 1005.0
20221203211509 44 233 3.0 6.0 0.02 0.13 0.13 96 1005.1
20221203211009 44 243 3.0 8.0 0.02 0.13 0.13 96 1005.1
20221203210508 44 236 3.0 7.0 0.02 0.13 0.13 96 1005.2
20221203204509 44 246 5.0 10.0 0.01 0.12 0.12 96 1005.5
20221203204009 44 244 4.0 12.0 0.01 0.12 0.12 96 1005.5
20221203203509 44 235 5.0 8.0 0.00 0.11 0.11 96 1005.5
20221203202509 44 241 5.0 12.0 0.00 0.11 0.11 96 1005.4
20221203201509 43 254 3.0 6.0 0.00 0.11 0.11 96 1005.3
20221203195009 43 237 7.0 14.0 0.00 0.11 0.11 96 1005.4
20221203194508 43 232 4.0 10.0 0.00 0.11 0.11 96 1005.3
20221203194009 43 248 6.0 12.0 0.00 0.11 0.11 96 1005.3
20221203193509 43 241 3.0 12.0 0.01 0.11 0.11 96 1005.3
20221203193009 43 253 5.0 13.0 0.01 0.11 0.11 96 1005.6
20221203192509 43 229 5.0 12.0 0.01 0.11 0.11 96 1005.7
20221203192009 43 239 5.0 10.0 0.01 0.11 0.11 96 1005.8
20221203191509 42 248 4.0 10.0 0.01 0.11 0.11 96 1005.8
20221203191009 42 240 6.0 12.0 0.01 0.11 0.11 96 1005.9
20221203190508 42 246 5.0 9.0 0.01 0.11 0.11 96 1006.1
20221203185009 42 238 7.0 14.0 0.01 0.11 0.11 96 1006.5
20221203184509 42 226 5.0 13.0 0.01 0.11 0.11 96 1006.5
20221203184009 42 237 6.0 13.0 0.01 0.11 0.11 96 1006.6
20221203180510 41 252 7.0 12.0 0.00 0.10 0.10 96 1007.0
20221203180009 41 248 7.0 12.0 0.00 0.10 0.10 96 1007.2
20221203175509 41 239 5.0 10.0 0.01 0.10 0.10 96 1007.3
20221203175010 41 234 5.0 13.0 0.01 0.10 0.10 96 1007.5
20221203174010 41 248 5.0 16.0 0.01 0.10 0.10 96 1007.7
20221203173510 40 238 6.0 12.0 0.01 0.10 0.10 96 1007.7
20221203173009 40 248 7.0 14.0 0.01 0.10 0.10 96 1007.8
20221203171509 40 252 5.0 13.0 0.03 0.10 0.10 96 1008.2
20221203165509 39 236 7.0 15.0 0.04 0.09 0.09 96 1008.6
20221203165010 39 234 7.0 16.0 0.05 0.09 0.09 96 1008.8
20221203164509 39 248 9.0 17.0 0.05 0.09 0.09 96 1009.0
20221203162009 39 248 9.0 16.0 0.06 0.08 0.08 95 1009.7
20221203161509 39 255 8.0 14.0 0.06 0.07 0.07 95 1009.8
20221203160009 38 234 10.0 16.0 0.04 0.05 0.05 95 1010.3
20221203155509 38 233 6.0 13.0 0.04 0.05 0.05 95 1010.5
20221203154509 39 252 8.0 22.0 0.03 0.04 0.04 94 1010.7
20221203153009 39 239 7.0 15.0 0.02 0.03 0.03 94 1011.0
20221203152509 39 247 9.0 20.0 0.01 0.02 0.02 93 1011.0
20221203151009 39 211 10.0 22.0 0.00 0.01 0.01 92 1011.3
20221203150509 39 243 9.0 21.0 0.00 0.01 0.01 91 1011.8
20221203145010 38 243 10.0 20.0 0.00 0.01 0.01 90 1012.2
20221203144509 38 238 10.0 26.0 0.00 0.01 0.01 90 1012.3
20221203144010 38 235 11.0 23.0 0.00 0.01 0.01 90 1012.5
20221203142510 38 248 11.0 21.0 0.00 0.01 0.01 90 1012.8
20221203142009 37 243 9.0 23.0 0.01 0.01 0.01 90 1013.0
20221203141509 37 252 10.0 21.0 0.01 0.01 0.01 91 1013.3
20221203140009 37 238 9.0 29.0 0.01 0.01 0.01 91 1013.9
20221203134510 36 228 9.0 22.0 0.01 0.01 0.01 89 1014.3
20221203131510 37 253 14.0 30.0 0.00 0.00 0.00 87 1014.5
20221203130509 36 246 12.0 24.0 0.00 0.00 0.00 87 1014.3
20221203130009 36 229 9.0 23.0 0.00 0.00 0.00 86 1014.3
20221203125510 36 238 15.0 28.0 0.00 0.00 0.00 86 1014.4
20221203125010 36 233 10.0 20.0 0.00 0.00 0.00 86 1014.5
20221203124010 36 234 10.0 23.0 0.00 0.00 0.00 86 1014.6
20221203123510 35 246 10.0 26.0 0.00 0.00 0.00 86 1015.1
20221203122010 35 249 9.0 28.0 0.00 0.00 0.00 86 1015.5
20221203121010 35 254 9.0 20.0 0.00 0.00 0.00 85 1015.8
20221203120510 35 230 9.0 16.0 0.00 0.00 0.00 83 1015.9
20221203115510 36 209 8.0 21.0 0.00 0.00 0.00 80 1015.9
20221203114010 36 240 7.0 20.0 0.00 0.00 0.00 78 1016.1
20221203112010 35 247 14.0 28.0 0.00 0.00 0.00 76 1016.4
20221203111510 35 241 7.0 25.0 0.00 0.00 0.00 76 1016.4
20221203111010 35 208 6.0 20.0 0.00 0.00 0.00 75 1016.5
20221203110510 35 252 6.0 25.0 0.00 0.00 0.00 75 1016.5
20221203110009 35 258 10.0 21.0 0.00 0.00 0.00 74 1016.9
20221203105510 35 221 11.0 32.0 0.00 0.00 0.00 74 1016.9
20221203104510 34 229 7.0 13.0 0.00 0.00 0.00 73 1017.2
20221203103510 34 244 7.0 20.0 0.00 0.00 0.00 72 1017.3
20221203102012 34 239 7.0 15.0 0.00 0.00 0.00 71 1017.6
20221203101510 34 258 6.0 28.0 0.00 0.00 0.00 70 1017.8
20221203100510 34 232 6.0 17.0 0.00 0.00 0.00 71 1017.7
20221203100010 34 236 7.0 23.0 0.00 0.00 0.00 71 1018.0
20221203095510 34 210 6.0 15.0 0.00 0.00 0.00 71 1018.4
20221203095010 34 198 6.0 18.0 0.00 0.00 0.00 72 1018.3
20221203094011 34 224 9.0 20.0 0.00 0.00 0.00 71 1018.3
20221203091510 34 227 5.0 18.0 0.00 0.00 0.00 71 1018.8
20221203091010 34 245 10.0 20.0 0.00 0.00 0.00 70 1019.0
20221203090510 34 251 9.0 20.0 0.00 0.00 0.00 70 1019.0
20221203085511 34 230 4.0 16.0 0.00 0.00 0.00 70 1019.2
20221203085011 34 247 10.0 22.0 0.00 0.00 0.00 69 1019.5
20221203084510 34 252 9.0 21.0 0.00 0.00 0.00 69 1019.5
20221203084011 34 235 6.0 15.0 0.00 0.00 0.00 69 1019.5
20221203083511 34 247 11.0 24.0 0.00 0.00 0.00 68 1019.6
20221203082510 34 245 10.0 20.0 0.00 0.00 0.00 68 1019.8
20221203080510 35 213 13.0 26.0 0.00 0.00 0.00 66 1020.0
20221203080010 34 260 10.0 15.0 0.00 0.00 0.00 67 1019.7
20221203075010 34 224 7.0 15.0 0.00 0.00 0.00 69 1020.1
20221203074011 34 239 6.0 13.0 0.00 0.00 0.00 69 1020.2
20221203071510 34 233 7.0 18.0 0.00 0.00 0.00 68 1020.3
20221203071010 34 255 6.0 16.0 0.00 0.00 0.00 68 1020.4
20221203070510 34 246 8.0 17.0 0.00 0.00 0.00 67 1020.6
20221203070010 34 236 9.0 20.0 0.00 0.00 0.00 68 1020.8
20221203065011 34 234 7.0 13.0 0.00 0.00 0.00 70 1021.1
20221203064011 34 222 10.0 23.0 0.00 0.00 0.00 70 1021.1
20221203063511 34 235 8.0 22.0 0.00 0.00 0.00 69 1021.5
20221203063011 34 238 9.0 24.0 0.00 0.00 0.00 68 1021.8
20221203062511 34 219 6.0 25.0 0.00 0.00 0.00 68 1021.7
20221203055511 34 242 7.0 20.0 0.00 0.00 0.00 67 1022.3
20221203055011 34 234 7.0 20.0 0.00 0.00 0.00 67 1022.3
20221203054511 34 223 4.0 13.0 0.00 0.00 0.00 67 1022.4
20221203054011 34 262 4.0 13.0 0.00 0.00 0.00 67 1022.6
20221203053515 34 225 5.0 15.0 0.00 0.00 0.00 67 1022.7
20221203052510 34 239 14.0 30.0 0.00 0.00 0.00 67 1023.4
20221203051507 34 254 10.0 22.0 0.00 0.00 0.00 67 1023.6
20221203045008 34 203 4.0 10.0 0.00 0.00 0.00 67 1023.9
20221203044509 34 273 3.0 12.0 0.00 0.00 0.00 67 1023.9
20221203043508 33 236 4.0 12.0 0.00 0.00 0.00 68 1023.9
20221203043008 33 236 2.0 10.0 0.00 0.00 0.00 68 1024.1
20221203041508 33 63 2.0 12.0 0.00 0.00 0.00 69 1024.2
20221203041008 33 230 5.0 15.0 0.00 0.00 0.00 69 1024.3
20221203034008 33 274 2.0 10.0 0.00 0.00 0.00 69 1024.2
20221203033508 33 236 2.0 13.0 0.00 0.00 0.00 69 1024.4
20221203033008 33 256 5.0 12.0 0.00 0.00 0.00 69 1024.5
20221203032508 33 255 5.0 12.0 0.00 0.00 0.00 69 1024.7
20221203032008 33 251 2.0 13.0 0.00 0.00 0.00 70 1024.7